CAPE
52 28 10 0 0 0 0 0 0 0 0 0 0 0 0 0 0 0 0 0 1 0 0 0 0 0 1 1 0 3 6 5 26 8 7 23 33 15
33 3 0 0 0 0 0 0 0 0 0 0 0 0 0 0 0 0 0 0 0 4 2 0 0 0 0 0 0 3 8 7 18 31 22 15 174 168
0 0 0 0 0 0 0 0 0 0 0 0 0 0 0 0 0 0 0 0 0 1 5 3 0 0 0 0 0 3 4 8 13 19 5 43 269 153
0 0 0 0 0 0 0 0 0 0 0 0 0 0 0 0 0 0 0 0 0 0 0 4 0 0 0 0 0 0 0 2 9 12 3 49 257 397
0 0 0 0 0 0 0 0 0 0 0 0 0 0 0 0 0 0 0 0 0 0 0 0 0 0 0 0 0 0 0 0 6 7 2 1 63 226
0 0 0 0 0 0 0 0 0 0 0 0 0 0 0 0 0 0 0 0 0 0 0 0 0 0 0 0 0 0 0 0 3 8 5 0 0 0
0 0 0 0 0 0 0 0 0 0 0 0 0 0 0 0 0 0 0 0 0 0 0 0 0 0 0 0 0 0 0 0 1 6 7 3 0 3
0 0 0 0 0 0 0 0 0 0 0 0 0 0 0 0 0 0 0 0 0 0 0 0 0 0 0 0 0 0 0 0 0 4 2 1 1 2
0 0 0 0 0 0 0 0 0 0 0 0 0 0 0 0 0 0 0 0 0 0 0 0 0 0 0 0 0 0 0 0 0 0 3 0 0 0
0 0 0 0 0 0 0 0 0 0 0 0 0 0 0 0 0 0 0 0 0 0 0 0 0 0 0 0 0 0 0 0 0 0 0 1 0 0
0 0 0 0 0 0 0 0 0 0 0 0 0 0 0 0 0 0 0 0 0 0 0 0 0 0 0 0 0 0 0 0 0 0 0 0 0 0
0 0 0 0 0 0 0 0 0 0 0 0 0 0 0 0 0 0 0 0 0 0 0 0 0 0 0 0 0 0 0 0 0 3 0 0 0 0
0 0 0 0 0 0 0 0 0 0 0 0 0 0 0 0 0 0 0 0 0 0 0 0 0 0 0 0 0 0 0 0 0 0 0 0 0 0
0 0 0 0 0 0 0 0 0 0 0 0 0 0 0 0 0 0 0 0 0 0 0 0 0 0 0 0 0 0 0 0 0 0 0 0 0 0
0 0 0 0 0 0 0 0 0 0 0 0 0 0 0 0 0 2 0 0 1 0 0 0 0 0 0 0 0 0 0 0 0 0 0 0 0 0
0 0 0 0 0 0 0 0 0 0 0 0 0 0 0 0 0 0 0 0 0 0 0 0 0 0 0 0 0 0 0 0 0 0 0 0 0 0
0 0 0 0 0 0 0 0 0 0 0 0 0 0 0 0 0 0 1 0 0 0 0 0 0 0 0 0 0 0 0 0 0 0 0 0 0 0
0 0 0 0 0 0 0 0 0 0 0 0 0 0 0 0 0 0 0 1 1 0 0 0 0 0 0 0 0 0 0 0 0 0 0 0 0 0
0 0 0 0 0 0 0 0 0 0 0 0 0 0 0 0 0 1 0 0 0 0 0 0 0 0 0 0 0 0 0 0 0 0 0 0 0 0
0 0 0 0 0 0 0 0 0 0 0 0 0 0 0 0 0 0 1 0 0 0 0 1 0 0 0 0 0 0 0 0 0 0 0 0 0 0
0 0 0 0 0 0 0 0 0 0 0 0 0 0 0 0 0 0 0 0 0 0 0 0 0 0 0 0 0 0 0 0 0 0 0 0 0 0
0 0 0 0 0 0 0 0 0 0 0 0 0 0 0 0 0 0 0 1 0 0 0 0 0 0 0 0 0 0 0 0 0 0 0 0 0 0
0 0 0 0 0 0 0 0 0 0 0 0 0 0 0 0 0 0 0 0 0 0 0 0 0 0 0 0 0 0 0 0 0 0 0 0 0 0
CIN
-98 -120 -76 -0 -0 -0 -0 -0 -0 -0 -0 -0 -0 -0 -0 -0 -0 -0 -0 -0 -0 -0 -0 -0 -0 -0 -0 -0 -0 -0 -0 -0 -0 -0 -0 -0 -0 -0
-81 -55 -0 -0 -0 -0 -0 -0 -0 -0 -0 -0 -0 -0 -0 -0 -0 -0 -0 -0 -0 -0 -0 -0 -0 -0 -0 -0 -0 -0 -0 -0 -0 -0 -0 -0 -40 -25
-0 -0 -0 -0 -0 -0 -0 -0 -0 -0 -0 -0 -0 -0 -0 -0 -0 -0 -0 -0 -0 -0 -0 -0 -0 -0 -0 -0 -0 -0 -0 -0 -0 -0 -0 -22 -14 -31
-0 -0 -0 -0 -0 -0 -0 -0 -0 -0 -0 -0 -0 -0 -0 -0 -0 -0 -0 -0 -0 -0 -0 -0 -0 -0 -0 -0 -0 -0 -0 -0 -0 -0 -0 -84 -7 -0
-0 -0 -0 -0 -0 -0 -0 -0 -0 -0 -0 -0 -0 -0 -0 -0 -0 -0 -0 -0 -0 -0 -0 -0 -0 -0 -0 -0 -0 -0 -0 -0 -0 -0 -0 -19 -39 -7
-0 -0 -0 -0 -0 -0 -0 -0 -0 -0 -0 -0 -0 -0 -0 -0 -0 -0 -0 -0 -0 -0 -0 -0 -0 -0 -0 -0 -0 -0 -0 -0 -0 -0 -0 -0 -0 -0
-0 -0 -0 -0 -0 -0 -0 -0 -0 -0 -0 -0 -0 -0 -0 -0 -0 -0 -0 -0 -0 -0 -0 -0 -0 -0 -0 -0 -0 -0 -0 -0 -0 -0 -0 -0 -0 -9
-0 -0 -0 -0 -0 -0 -0 -0 -0 -0 -0 -0 -0 -0 -0 -0 -0 -0 -0 -0 -0 -0 -0 -0 -0 -0 -0 -0 -0 -0 -0 -0 -0 -0 -0 -0 -0 -2
-0 -0 -0 -0 -0 -0 -0 -0 -0 -0 -0 -0 -0 -0 -0 -0 -0 -0 -0 -0 -0 -0 -0 -0 -0 -0 -0 -0 -0 -0 -0 -0 -0 -0 -0 -0 -0 -0
-0 -0 -0 -0 -0 -0 -0 -0 -0 -0 -0 -0 -0 -0 -0 -0 -0 -0 -0 -0 -0 -0 -0 -0 -0 -0 -0 -0 -0 -0 -0 -0 -0 -0 -0 -0 -0 -0
-0 -0 -0 -0 -0 -0 -0 -0 -0 -0 -0 -0 -0 -0 -0 -0 -0 -0 -0 -0 -0 -0 -0 -0 -0 -0 -0 -0 -0 -0 -0 -0 -0 -0 -0 -0 -0 -0
-0 -0 -0 -0 -0 -0 -0 -0 -0 -0 -0 -0 -0 -0 -0 -0 -0 -0 -0 -0 -0 -0 -0 -0 -0 -0 -0 -0 -0 -0 -0 -0 -0 -0 -0 -0 -0 -0
-0 -0 -0 -0 -0 -0 -0 -0 -0 -0 -0 -0 -0 -0 -0 -0 -0 -0 -0 -0 -0 -0 -0 -0 -0 -0 -0 -0 -0 -0 -0 -0 -0 -0 -0 -0 -0 -0
-0 -0 -0 -0 -0 -0 -0 -0 -0 -0 -0 -0 -0 -0 -0 -0 -0 -0 -0 -0 -0 -0 -0 -0 -0 -0 -0 -0 -0 -0 -0 -0 -0 -0 -0 -0 -0 -0
-0 -0 -0 -0 -0 -0 -0 -0 -0 -0 -0 -0 -0 -0 -0 -0 -0 -0 -0 -0 -0 -0 -0 -0 -0 -0 -0 -0 -0 -0 -0 -0 -0 -0 -0 -0 -0 -0
-0 -0 -0 -0 -0 -0 -0 -0 -0 -0 -0 -0 -0 -0 -0 -0 -0 -0 -0 -0 -0 -0 -0 -0 -0 -0 -0 -0 -0 -0 -0 -0 -0 -0 -0 -0 -0 -0
-0 -0 -0 -0 -0 -0 -0 -0 -0 -0 -0 -0 -0 -0 -0 -0 -0 -0 -0 -0 -0 -0 -0 -0 -0 -0 -0 -0 -0 -0 -0 -0 -0 -0 -0 -0 -0 -0
-0 -0 -0 -0 -0 -0 -0 -0 -0 -0 -0 -0 -0 -0 -0 -0 -0 -0 -0 -0 -0 -0 -0 -0 -0 -0 -0 -0 -0 -0 -0 -0 -0 -0 -0 -0 -0 -0
-0 -0 -0 -0 -0 -0 -0 -0 -0 -0 -0 -0 -0 -0 -0 -0 -0 -0 -0 -0 -0 -0 -0 -0 -0 -0 -0 -0 -0 -0 -0 -0 -0 -0 -0 -0 -0 -0
-0 -0 -0 -0 -0 -0 -0 -0 -0 -0 -0 -0 -0 -0 -0 -0 -0 -0 -0 -0 -0 -0 -0 -0 -0 -0 -0 -0 -0 -0 -0 -0 -0 -0 -0 -0 -0 -0
-0 -0 -0 -0 -0 -0 -0 -0 -0 -0 -0 -0 -0 -0 -0 -0 -0 -0 -0 -0 -0 -0 -0 -0 -0 -0 -0 -0 -0 -0 -0 -0 -0 -0 -0 -0 -0 -0
-0 -0 -0 -0 -0 -0 -0 -0 -0 -0 -0 -0 -0 -0 -0 -0 -0 -0 -0 -0 -0 -0 -0 -0 -0 -0 -0 -0 -0 -0 -0 -0 -0 -0 -0 -0 -0 -0
-0 -0 -0 -0 -0 -0 -0 -0 -0 -0 -0 -0 -0 -0 -0 -0 -0 -0 -0 -0 -0 -0 -0 -0 -0 -0 -0 -0 -0 -0 -0 -0 -0 -0 -0 -0 -0 -0
Wind_Speed
6 6 5 4 5 5 4 3 4 4 4 2 2 1 2 2 3 2 3 6 6 5 4 5 5 8 11 13 16 18 20 20 22 25 26 25 21 21
6 7 5 5 3 3 3 3 3 4 4 3 2 3 2 2 2 3 0 2 4 6 5 3 3 6 10 13 16 20 20 22 25 27 28 23 16 18
4 8 7 5 5 4 3 3 3 3 3 1 2 1 2 2 0 1 1 2 2 5 7 4 2 5 8 12 15 18 20 23 25 29 27 21 11 13
8 6 6 5 6 5 3 4 4 2 3 3 1 1 2 3 3 3 1 1 2 3 7 3 1 5 8 12 15 18 21 23 26 30 26 12 5 12
9 8 8 9 6 4 4 5 4 3 3 4 4 1 0 1 2 0 1 1 2 4 4 3 2 5 8 9 12 15 19 22 25 27 22 11 13 4
5 6 7 7 8 6 5 6 5 4 3 3 3 3 2 1 0 0 3 1 2 1 3 5 5 5 6 9 12 14 17 20 22 25 23 20 14 23
5 4 4 5 6 7 5 5 6 4 2 2 2 2 2 1 1 1 2 1 2 1 1 2 2 1 2 5 7 11 14 17 19 21 23 22 15 14
6 5 5 8 8 9 9 7 6 5 5 3 3 3 4 3 3 3 1 1 2 1 1 2 1 1 1 2 9 12 13 15 16 18 19 21 21 12
8 7 5 4 7 7 10 10 7 6 3 4 4 4 4 4 3 3 3 3 2 0 1 2 1 1 1 3 7 10 10 11 13 14 14 17 19 15
7 7 7 6 6 7 6 6 5 4 3 2 3 3 3 4 3 3 3 2 1 2 3 2 0 1 2 2 6 8 7 8 9 9 11 13 14 15
6 6 7 6 11 13 7 6 4 2 2 5 4 3 4 5 5 3 2 2 2 2 2 1 0 1 1 2 3 7 7 6 7 6 9 10 12 12
4 5 11 8 13 13 7 7 6 5 5 2 1 2 4 3 2 3 2 1 1 1 1 2 1 1 4 1 2 3 3 8 6 6 7 8 8 4
4 4 3 12 12 13 10 5 5 6 7 5 3 2 2 3 2 3 1 1 1 1 1 2 1 1 2 2 2 2 2 3 3 4 8 6 6 5
6 4 4 11 11 11 9 10 10 8 4 4 3 2 2 1 1 2 3 2 3 1 0 3 3 3 2 2 2 3 2 1 1 1 2 4 5 4
5 8 11 11 12 10 11 12 10 4 4 2 2 2 2 1 3 3 2 2 4 3 1 1 3 4 2 2 2 1 1 2 0 1 1 1 1 1
10 8 9 9 8 7 6 6 4 4 4 3 2 2 2 3 2 1 1 2 0 1 2 1 3 3 3 3 3 1 2 1 1 1 1 0 1 2
8 4 3 3 4 4 3 4 4 4 4 3 2 3 3 2 2 2 2 2 2 1 1 2 1 4 3 4 1 3 2 2 2 2 2 1 2 4
5 6 6 6 7 6 5 5 4 7 4 4 3 4 3 3 3 2 2 2 3 2 1 1 1 3 3 3 9 2 2 3 2 3 2 2 2 3
6 7 7 7 7 7 6 5 5 5 5 5 5 4 4 4 4 3 4 3 3 2 2 2 2 3 2 1 2 9 3 1 2 1 2 3 2 2
7 8 7 7 7 7 6 6 5 4 4 4 4 4 5 3 2 2 3 4 3 1 0 1 2 3 4 3 1 3 6 3 2 1 1 2 4 10
7 7 7 7 6 6 6 6 5 5 5 4 4 5 4 4 3 3 4 7 5 3 2 3 4 7 2 2 2 3 3 6 5 4 2 1 1 2
4 7 6 6 6 6 5 5 5 6 5 5 4 4 4 4 5 5 4 3 2 3 3 2 1 3 2 4 5 3 3 3 3 11 10 7 4 2
6 6 6 6 6 6 6 6 6 6 6 5 4 4 5 4 4 3 3 4 3 3 3 1 2 2 3 4 5 2 2 2 1 1 2 12 18 19
Wind_Direction
227 214 210 182 186 168 190 162 143 186 216 163 152 116 131 124 114 101 52 354 345 328 338 344 352 350 352 344 339 332 329 321 319 316 310 297 275 253
216 186 213 134 148 187 177 183 139 150 175 168 178 156 154 86 59 54 3 16 328 323 294 311 336 357 354 343 340 334 332 329 329 327 316 299 271 248
191 199 161 143 164 178 162 143 139 136 134 198 98 139 152 152 261 324 322 41 331 337 301 300 333 358 348 347 345 335 339 333 336 334 323 300 273 211
194 165 160 149 153 151 149 151 152 133 125 146 123 144 180 200 194 207 277 48 293 308 339 279 118 360 353 353 343 343 343 341 342 340 328 295 212 193
186 180 162 152 157 159 149 139 141 139 119 141 164 147 112 183 216 244 287 273 253 271 289 314 358 355 349 356 344 348 347 346 349 352 354 57 81 134
159 148 169 168 157 146 147 152 148 143 142 131 155 156 166 216 20 344 314 293 288 250 259 265 290 327 351 356 349 347 352 350 357 2 12 31 61 82
99 95 124 133 138 151 157 152 148 151 145 141 134 115 173 152 167 243 240 270 271 226 323 265 243 213 1 346 332 349 354 354 2 10 15 30 41 96
128 114 115 120 123 127 115 133 152 149 171 146 167 182 196 172 162 200 211 54 320 27 16 289 210 236 342 344 335 353 353 354 9 14 22 25 20 87
138 138 138 132 130 122 129 120 110 104 122 164 168 193 179 171 167 175 200 186 204 156 155 284 327 305 360 328 339 353 353 358 6 16 32 36 31 22
141 149 143 153 147 132 127 120 115 97 100 110 146 167 164 148 167 181 169 181 348 260 167 247 191 205 314 317 338 355 356 1 9 17 40 50 47 38
150 151 145 155 172 155 133 137 128 125 146 141 146 183 224 214 185 136 165 133 225 240 202 208 326 249 16 325 330 351 10 18 24 49 50 55 55 49
137 145 168 169 171 164 153 159 164 193 170 124 59 58 52 28 261 148 111 219 201 314 209 151 9 357 351 320 318 343 357 28 43 60 73 62 60 60
156 162 172 172 174 175 167 163 186 160 177 154 131 120 104 86 67 88 81 188 221 233 169 109 174 341 106 292 314 344 7 4 20 32 42 71 79 102
169 165 165 180 180 180 169 184 176 146 138 138 150 157 183 150 226 96 89 28 16 336 159 161 156 146 139 343 276 343 358 2 27 24 19 34 52 93
154 171 176 183 177 184 186 188 168 150 151 144 170 173 172 152 127 135 79 38 42 341 13 148 133 161 132 181 211 282 54 298 114 130 38 53 136 90
166 173 178 171 174 172 181 194 150 160 172 159 172 135 142 162 209 150 84 143 149 312 338 189 143 163 193 227 153 242 198 237 338 201 149 38 249 226
144 136 141 138 163 169 176 191 172 177 159 153 153 170 179 178 209 156 133 151 193 168 272 340 194 193 210 164 173 208 198 221 214 175 135 287 244 233
155 172 178 180 185 188 183 189 181 192 184 166 176 179 181 173 185 154 156 154 190 195 185 205 39 9 338 267 207 177 204 192 205 175 148 134 280 242
192 189 186 191 187 192 188 185 192 199 171 178 184 180 177 193 171 174 194 202 219 185 200 162 123 110 72 302 294 198 170 234 135 110 159 186 220 253
193 190 191 189 188 192 187 193 195 176 176 178 177 184 183 152 148 172 184 187 197 137 116 204 199 170 158 198 241 278 198 167 149 186 201 201 244 267
196 191 186 187 191 189 192 187 183 182 174 168 189 181 175 161 184 186 187 205 195 153 212 233 221 212 135 96 1 298 296 246 193 170 152 141 276 303
179 191 183 179 187 182 187 179 178 186 173 181 184 178 172 176 193 205 198 181 188 175 212 224 105 104 139 214 250 236 299 305 285 246 228 215 164 257
187 190 184 189 186 177 178 176 175 181 181 170 173 180 163 172 187 177 175 178 165 176 184 219 168 132 190 197 224 229 234 271 265 285 250 245 244 249